TimeCET,TemperatureF,Dew PointF,Humidity,Sea Level PressureIn,VisibilityMPH,Wind Direction,Wind SpeedMPH,Gust SpeedMPH,PrecipitationIn,Events,Conditions,WindDirDegrees,DateUTC
12:00 AM,53.6,51.8,94,29.95,6.2,South,2.3,-,N/A,,Partly Cloudy,180,2012-11-09 23:00:00
1:00 AM,53.6,51.8,94,29.95,6.2,SSE,3.5,-,N/A,,Partly Cloudy,160,2012-11-10 00:00:00
2:00 AM,55.4,53.6,94,29.95,6.2,South,5.8,-,N/A,,Partly Cloudy,180,2012-11-10 01:00:00
3:00 AM,53.6,51.8,94,29.92,6.2,South,1.2,-,N/A,,Partly Cloudy,180,2012-11-10 02:00:00
4:00 AM,53.6,51.8,94,29.92,6.2,Variable,2.3,-,N/A,,Partly Cloudy,0,2012-11-10 03:00:00
5:00 AM,51.8,51.8,100,29.92,6.2,ESE,4.6,-,N/A,,Partly Cloudy,120,2012-11-10 04:00:00
6:00 AM,51.8,51.8,100,29.92,6.2,ESE,2.3,-,N/A,,Partly Cloudy,120,2012-11-10 05:00:00
7:00 AM,50.0,50.0,100,29.95,3.7,Calm,Calm,-,N/A,,Partly Cloudy,0,2012-11-10 06:00:00
7:30 AM,50.0,50.0,100,29.95,1.2,Calm,Calm,-,N/A,,Partly Cloudy,0,2012-11-10 06:30:00
8:00 AM,48.2,48.2,100,29.95,0.3,Calm,Calm,-,N/A,Fog,Fog,0,2012-11-10 07:00:00
9:00 AM,51.8,51.8,100,29.95,3.1,SSE,2.3,-,N/A,,Mist,150,2012-11-10 08:00:00
10:00 AM,57.2,57.2,100,29.98,5.0,Variable,3.5,-,N/A,,Unknown,0,2012-11-10 09:00:00
10:30 AM,59.0,57.2,94,29.98,3.1,West,5.8,-,N/A,,Mostly Cloudy,280,2012-11-10 09:30:00
11:00 AM,57.2,57.2,100,29.98,3.1,North,4.6,-,N/A,,Mostly Cloudy,360,2012-11-10 10:00:00
11:10 AM,57.2,55.4,94,29.98,3.1,North,4.6,-,N/A,Fog,Mostly Cloudy,360,2012-11-10 10:10:00
12:00 PM,57.2,57.2,100,29.98,3.1,Calm,Calm,-,N/A,Fog,Mostly Cloudy,0,2012-11-10 11:00:00
12:20 PM,59.0,57.2,94,29.98,3.1,Variable,3.5,-,N/A,,Mostly Cloudy,0,2012-11-10 11:20:00
1:00 PM,60.8,57.2,88,29.98,5.0,Calm,Calm,-,N/A,,Mostly Cloudy,0,2012-11-10 12:00:00
2:00 PM,62.6,55.4,77,29.95,6.2,West,6.9,-,N/A,,Scattered Clouds,270,2012-11-10 13:00:00
3:00 PM,64.4,55.4,73,29.92,6.2,West,8.1,-,N/A,,Scattered Clouds,270,2012-11-10 14:00:00
4:00 PM,62.6,55.4,77,29.92,6.2,WSW,8.1,-,N/A,,Scattered Clouds,250,2012-11-10 15:00:00
5:00 PM,64.4,55.4,73,29.92,6.2,West,11.5,-,N/A,,Mostly Cloudy,260,2012-11-10 16:00:00
6:00 PM,60.8,55.4,82,29.95,6.2,West,9.2,-,N/A,,Mostly Cloudy,260,2012-11-10 17:00:00
7:00 PM,60.8,55.4,82,29.95,6.2,WSW,8.1,-,N/A,,Mostly Cloudy,250,2012-11-10 18:00:00
7:15 PM,60.8,55.4,82,29.95,3.7,WSW,6.9,-,N/A,Rain,Rain,250,2012-11-10 18:15:00
8:00 PM,59.0,57.2,94,29.95,6.2,SW,6.9,-,N/A,,Mostly Cloudy,230,2012-11-10 19:00:00
9:00 PM,59.0,57.2,94,29.95,6.2,SW,8.1,-,N/A,Rain,Light Rain,220,2012-11-10 20:00:00
10:00 PM,59.0,57.2,94,29.95,6.2,SW,8.1,-,N/A,,Mostly Cloudy,220,2012-11-10 21:00:00
11:00 PM,59.0,57.2,94,29.95,6.2,WSW,8.1,-,N/A,,Mostly Cloudy,250,2012-11-10 22:00:00